Location: St Paul
(33.4390°N, 83.7350°W)
Time: 21:36:03
(UTC-05:00)

Cosmos 1697 Rocket - Pass Details

Date: 06 October 2017
Orbit: 833 x 843 km, 71.0° (Epoch: 16 December)

Event Time Altitude Azimuth Distance (km) Brightness Sun altitude
Rises 20:20:35 0° 339° (NNW) 3,403 6.2 -15.1°
Reaches altitude 10° 20:23:02 10° 340° (NNW) 2,464 5.4 -15.6°
Maximum altitude 20:28:43 88° 71° (ENE) 846 2.6 -16.8°
Drops below altitude 10° 20:34:21 10° 160° (SSE) 2,446 4.9 -17.9°
Enters shadow 20:36:46 - 160° (SSE) 3,375 5.6 -18.4°
Sets 20:36:46 0° 160° (SSE) 3,375 5.6 -18.4°
